TimeEDT,TemperatureF,Dew PointF,Humidity,Sea Level PressureIn,VisibilityMPH,Wind Direction,Wind SpeedMPH,Gust SpeedMPH,PrecipitationIn,Events,Conditions,WindDirDegrees,DateUTC
12:15 AM,23.0,12.2,63,30.10,10.0,West,3.5,-,N/A,,Mostly Cloudy,260,2013-04-02 04:15:00
12:35 AM,21.2,12.2,68,30.10,10.0,West,5.8,-,N/A,,Scattered Clouds,260,2013-04-02 04:35:00
12:55 AM,21.2,12.2,68,30.10,10.0,West,5.8,-,N/A,,Clear,260,2013-04-02 04:55:00
1:15 AM,23.0,14.0,68,30.10,10.0,West,5.8,-,N/A,,Clear,270,2013-04-02 05:15:00
1:35 AM,21.2,14.0,74,30.10,10.0,WSW,3.5,-,N/A,,Clear,250,2013-04-02 05:35:00
2:15 AM,21.2,14.0,74,30.10,10.0,WSW,4.6,-,N/A,,Clear,250,2013-04-02 06:15:00
2:35 AM,21.2,15.8,80,30.10,10.0,WSW,3.5,-,N/A,,Clear,250,2013-04-02 06:35:00
2:55 AM,21.2,15.8,80,30.10,10.0,West,4.6,-,N/A,,Clear,260,2013-04-02 06:55:00
3:15 AM,23.0,17.6,80,30.10,10.0,WSW,5.8,-,N/A,,Clear,240,2013-04-02 07:15:00
3:35 AM,23.0,17.6,80,30.10,10.0,WSW,5.8,-,N/A,,Clear,250,2013-04-02 07:35:00
3:55 AM,23.0,17.6,80,30.10,10.0,WSW,6.9,-,N/A,,Clear,250,2013-04-02 07:55:00
4:15 AM,21.2,17.6,86,30.10,10.0,West,5.8,-,N/A,,Clear,260,2013-04-02 08:15:00
4:35 AM,21.2,17.6,86,30.10,10.0,West,3.5,-,N/A,,Clear,270,2013-04-02 08:35:00
4:55 AM,23.0,17.6,80,30.11,10.0,NW,1.2,-,N/A,,Clear,320,2013-04-02 08:55:00
5:15 AM,21.2,17.6,86,30.11,10.0,WNW,2.3,-,N/A,,Clear,300,2013-04-02 09:15:00
5:35 AM,19.4,17.6,93,30.12,10.0,WNW,2.3,-,N/A,,Clear,300,2013-04-02 09:35:00
5:55 AM,19.4,17.6,93,30.12,10.0,West,1.2,-,N/A,,Clear,280,2013-04-02 09:55:00
6:15 AM,19.4,17.6,93,30.13,10.0,West,1.2,-,N/A,,Clear,280,2013-04-02 10:15:00
6:35 AM,17.6,15.8,93,30.14,10.0,WSW,1.2,-,N/A,,Clear,240,2013-04-02 10:35:00
6:55 AM,19.4,15.8,86,30.14,10.0,Calm,Calm,-,N/A,,Clear,220,2013-04-02 10:55:00
7:15 AM,17.6,15.8,93,30.14,10.0,SSW,1.2,-,N/A,,Clear,200,2013-04-02 11:15:00
7:35 AM,17.6,15.8,93,30.15,10.0,SW,2.3,-,N/A,,Clear,230,2013-04-02 11:35:00
7:55 AM,19.4,15.8,86,30.15,10.0,SW,1.2,-,N/A,,Clear,230,2013-04-02 11:55:00
8:15 AM,21.2,19.4,93,30.16,10.0,SW,2.3,-,N/A,,Clear,230,2013-04-02 12:15:00
8:35 AM,24.8,19.4,80,30.16,10.0,WSW,4.6,-,N/A,,Clear,240,2013-04-02 12:35:00
8:55 AM,26.6,19.4,74,30.17,10.0,WSW,5.8,-,N/A,,Clear,250,2013-04-02 12:55:00
9:15 AM,28.4,19.4,69,30.17,10.0,WSW,6.9,-,N/A,,Scattered Clouds,250,2013-04-02 13:15:00
9:55 AM,30.2,17.6,60,30.17,10.0,West,9.2,-,N/A,,Scattered Clouds,280,2013-04-02 13:55:00
10:35 AM,32.0,15.8,51,30.18,10.0,WNW,9.2,-,N/A,,Mostly Cloudy,300,2013-04-02 14:35:00
10:55 AM,33.8,12.2,41,30.18,10.0,WNW,12.7,18.4,N/A,,Mostly Cloudy,290,2013-04-02 14:55:00
11:15 AM,35.6,12.2,38,30.18,10.0,NW,12.7,23.0,N/A,,Overcast,310,2013-04-02 15:15:00
11:35 AM,35.6,10.4,35,30.18,10.0,WNW,13.8,21.9,N/A,,Overcast,300,2013-04-02 15:35:00
11:55 AM,35.6,10.4,35,30.18,10.0,WNW,11.5,19.6,N/A,,Mostly Cloudy,290,2013-04-02 15:55:00
12:15 PM,37.4,10.4,33,30.18,10.0,WNW,13.8,19.6,N/A,,Overcast,300,2013-04-02 16:15:00
12:35 PM,37.4,8.6,30,30.17,10.0,West,17.3,23.0,N/A,,Mostly Cloudy,270,2013-04-02 16:35:00
12:55 PM,39.2,8.6,28,30.16,10.0,West,15.0,20.7,N/A,,Mostly Cloudy,280,2013-04-02 16:55:00
1:15 PM,39.2,8.6,28,30.16,10.0,WNW,16.1,-,N/A,,Mostly Cloudy,290,2013-04-02 17:15:00
1:35 PM,39.2,8.6,28,30.15,10.0,WNW,11.5,20.7,N/A,,Mostly Cloudy,290,2013-04-02 17:35:00
1:55 PM,39.2,6.8,26,30.16,10.0,West,16.1,24.2,N/A,,Mostly Cloudy,280,2013-04-02 17:55:00
2:15 PM,39.2,8.6,28,30.15,10.0,WNW,12.7,23.0,N/A,,Mostly Cloudy,300,2013-04-02 18:15:00
2:35 PM,39.2,8.6,28,30.15,10.0,West,15.0,20.7,N/A,,Scattered Clouds,280,2013-04-02 18:35:00
2:55 PM,39.2,8.6,28,30.15,10.0,WNW,19.6,26.5,N/A,,Scattered Clouds,290,2013-04-02 18:55:00
3:15 PM,39.2,8.6,28,30.14,10.0,WNW,19.6,25.3,N/A,,Scattered Clouds,290,2013-04-02 19:15:00
3:35 PM,39.2,8.6,28,30.14,10.0,NW,17.3,23.0,N/A,,Scattered Clouds,310,2013-04-02 19:35:00
3:55 PM,39.2,6.8,26,30.14,10.0,WNW,19.6,26.5,N/A,,Scattered Clouds,290,2013-04-02 19:55:00
4:15 PM,39.2,6.8,26,30.14,10.0,WNW,18.4,23.0,N/A,,Scattered Clouds,300,2013-04-02 20:15:00
4:35 PM,39.2,6.8,26,30.15,10.0,WNW,18.4,24.2,N/A,,Scattered Clouds,300,2013-04-02 20:35:00
4:55 PM,39.2,6.8,26,30.15,10.0,NW,13.8,32.2,N/A,,Scattered Clouds,310,2013-04-02 20:55:00
5:15 PM,39.2,8.6,28,30.15,10.0,NW,18.4,24.2,N/A,,Scattered Clouds,320,2013-04-02 21:15:00
5:35 PM,37.4,8.6,30,30.16,10.0,West,16.1,24.2,N/A,,Clear,280,2013-04-02 21:35:00
5:55 PM,37.4,8.6,30,30.17,10.0,NW,13.8,23.0,N/A,,Clear,310,2013-04-02 21:55:00
8:15 PM,32.0,5.0,32,30.21,10.0,WNW,8.1,-,N/A,,Clear,300,2013-04-03 00:15:00
8:35 PM,30.2,6.8,37,30.21,10.0,WNW,8.1,-,N/A,,Clear,300,2013-04-03 00:35:00
8:55 PM,30.2,6.8,37,30.22,10.0,WNW,6.9,-,N/A,,Clear,300,2013-04-03 00:55:00
9:15 PM,30.2,8.6,40,30.22,10.0,NW,5.8,-,N/A,,Clear,310,2013-04-03 01:15:00
9:35 PM,28.4,10.4,47,30.23,10.0,WNW,6.9,-,N/A,,Clear,300,2013-04-03 01:35:00
9:55 PM,28.4,10.4,47,30.24,10.0,NW,4.6,-,N/A,,Clear,310,2013-04-03 01:55:00
10:15 PM,28.4,10.4,47,30.24,10.0,NW,3.5,-,N/A,,Clear,310,2013-04-03 02:15:00
10:35 PM,26.6,10.4,51,30.24,10.0,NW,3.5,-,N/A,,Clear,310,2013-04-03 02:35:00
10:55 PM,26.6,12.2,55,30.25,10.0,NW,2.3,-,N/A,,Clear,310,2013-04-03 02:55:00
11:15 PM,26.6,12.2,55,30.25,10.0,West,2.3,-,N/A,,Clear,280,2013-04-03 03:15:00
11:35 PM,24.8,12.2,59,30.25,10.0,West,2.3,-,N/A,,Clear,280,2013-04-03 03:35:00
11:55 PM,24.8,12.2,59,30.25,10.0,West,2.3,-,N/A,,Clear,270,2013-04-03 03:55:00